Regional & State Weather Roundups


034 
NZUS99 KTBW 200316
RWRBOY
FLORIDA MARINE WEATHER ROUNDUP
NATIONAL WEATHER SERVICE TAMPA BAY RUSKIN FL
1000 PM EST MON FEB 19 2018
GMZ750-755-850-853-856-200400-
GULF OF MEXICO
  
STATION/POSITION TEMP    WIND        WAVE   SWELL
                 AIR SEA DIR/SP/G    HT/PER HT/PER
                 (F)     (DEG/KT/KT) (FT/S) (FT/S)
22SSE BILOXI     NOT AVBL
DAUPHIN ISLAND    68     110/  9/ 10
CAPE SAN BLAS    NOT AVBL
65S MOBILE           72  120/ 14/ 17   6/ 8   3/ 8
56S PANAMA CITY   74 73  130/ 14/ 17   4/ 7   2/10
KEATON BEACH      67      60/  5/  7
CEDAR KEY         74     110/ 16/ 18
105WNW TAMPA     NOT AVBL
88W LONGBOAT KEY     73                3/ 6
VENICE            73 73   90/  8/ 10
210W CAPTIVA     NOT AVBL
$$
GMZ033-200400-
KEYS
  
STATION/POSITION TEMP    WIND        WAVE   SWELL
                 AIR SEA DIR/SP/G    HT/PER HT/PER
                 (F)     (DEG/KT/KT) (FT/S) (FT/S)
CENTRAL GULF      78 76  130/ 17/ 21
375W OF MARCO    NOT AVBL
DRY TORTUGAS     NOT AVBL
SAND KEY          77
SOMBRERO KEY     NOT AVBL
LONG KEY          77 77  120/ 18/ 21
MOLASSES REEF     77 77  120/ 24/ 26
$$
AMZ550-555-200400-
WESTERN ATLANTIC OCEAN
  
STATION/POSITION TEMP    WIND        WAVE   SWELL
                 AIR SEA DIR/SP/G    HT/PER HT/PER
                 (F)     (DEG/KT/KT) (FT/S) (FT/S)
GRAYS REEF        63 58  130/  6/  6   3/ 9   3/ 9
ST AUGUSTINE      67 63  120/ 10/ 10
20E CANAVERAL     75 74  110/ 17/ 21   5/ 5   2/ 9
120E CANAVERAL   NOT AVBL
PORT EVERGLADES   77      90/ 10/ 17
VIRGINIA KEY      77 77   80/ 20/ 22
LAKE WORTH        76 76  110/ 20/ 24
FOWEY ROCKS       76 76  100/ 22/ 25
SETTLEMENT POINT  75     100/ 16/ 20
$$
  

035 
NZUS99 KTBW 200316
RWRTPA
FLORIDA REGIONAL WEATHER ROUNDUP
NATIONAL WEATHER SERVICE TAMPA BAY RUSKIN FL
1000 PM EST MON FEB 19 2018
NOTE: "FAIR" INDICATES FEW OR NO CLOUDS BELOW 12,000 FEET WITH NO
SIGNIFICANT WEATHER AND/OR OBSTRUCTIONS TO VISIBILITY.
  
STATION/POSITION
FLZ042-048>051-055-056-060-061-200400-
EXTRA STATIONS
  
CITY           SKY/WX    TMP DP  RH WIND       PRES   REMARKS
Everglades Cty NOT AVBL                                               
CRYSTAL RIVER  FAIR      72  64  78 E5        30.29R                  
SEBRING        FAIR      70  66  86 E5        30.29R                  
EGLIN AFB      FAIR      65  64  97 SE3       30.24S                  
CANAVERAL      FAIR      72  68  87 SE13      30.30S                  
$$
FLZ001>010-012>015-200400-
PANHANDLE FLORIDA
  
CITY           SKY/WX    TMP DP  RH WIND       PRES   REMARKS
PENSACOLA      CLOUDY    70  67  90 SE12      30.23R                  
PENSACOLA NAS  MOCLDY    70  67  90 MISG      30.22R                  
MILTON NAS     MOCLDY    66  66 100 SE8       30.24                   
CRESTVIEW      FAIR      60  58  92 CALM      30.26S FOG              
VALPARAISO     CLEAR     68  64  88 SE8       30.23S                  
MARY ESTHER    FAIR      68  66  94 E5        30.23                   
PANAMA CITY    FAIR      63  60  90 CALM      30.25R                  
TYNDALL AFB    FOG       63  63 100 CALM      30.26R VSB 1/2          
APALACHICOLA   FAIR      63  63 100 CALM      30.25R                  
STATION/POSITION
29.2N   88.2W
28.8N   86.0W
$$
FLZ011-016>039-200400-
NORTH FLORIDA
  
CITY           SKY/WX    TMP DP  RH WIND       PRES   REMARKS
MARIANNA       FAIR      65  60  84 CALM      30.26R                  
TALLAHASSEE    FAIR      63  57  81 CALM      30.27R                  
PERRY          FAIR      68  61  79 NE3       30.29R                  
CROSS CITY     FAIR      72  64  74 E8        30.33R                  
GAINESVILLE    FAIR      68  63  84 E7        30.34R                  
MAYPORT NAS    FAIR      67  65  93 SE8       30.34R                  
JACKSONVILLE   FAIR      64  63  96 E3        30.33R                  
JAX NAS        FAIR      70  66  87 SE7       30.34R                  
JAX CRAIG      FAIR      66  65  96 E5        30.34R                  
ST AUGUSTINE   FAIR      67  65  93 VRB3      30.35R                  
STATION/POSITION
KEATON BEACH
31.4N   80.9W
ST AUGUSTINE
$$
FLZ040-043>046-052-053-057-058-063-200400-
CENTRAL FLORIDA
  
CITY           SKY/WX    TMP DP  RH WIND       PRES   REMARKS
OCALA          FAIR      71  65  81 VRB3      30.31R                  
LEESBURG       FAIR      73  68  84 E9        30.31R                  
SANFORD        MOCLDY    72  67  84 E10       30.31R                  
ORLANDO EXEC   MOCLDY    72  69  90 E8        30.31R                  
ORLANDO INTL   FAIR      72  68  87 E8        30.31R                  
KISSIMMEE      FAIR      72  68  87 E8        30.32R                  
WINTER HAVEN   FAIR      72  68  87 E10       30.30R                  
LAKELAND       CLEAR     72  64  78 E8        30.29S                  
BARTOW         FAIR      70  68  94 E8        30.30R                  
$$
FLZ041-047-054-059-064-200400-
EAST CENTRAL FLORIDA
  
CITY           SKY/WX    TMP DP  RH WIND       PRES   REMARKS
DAYTONA BEACH  FAIR      72  69  90 E6        30.32R                  
JFK SPACE CTR  FAIR      73  73 100 SE6       30.31R                  
PATRICK AFB    FAIR      73  73 100 SE14      30.30S                  
MELBOURNE      FAIR      76  69  79 E13       30.30R                  
VERO BEACH     FAIR      75  68  78 E12       30.30R                  
FT PIERCE      MOCLDY    74  70  87 E15       30.29S                  
STUART         CLOUDY    75  70  83 E17       30.30R                  
STATION/POSITION
$$
FLZ042-048>051-055-056-060-061-200400-
WEST CENTRAL FLORIDA
  
CITY           SKY/WX    TMP DP  RH WIND       PRES   REMARKS
BROOKSVILLE    FAIR      73  65  75 E6        30.29R                  
TAMPA          FAIR      77  65  66 SE9G16    30.27R                  
MACDILL AFB    FAIR      73  65  75 SE8       30.26R                  
ST PETERSBURG  FAIR      74  65  73 E7        30.26R                  
ST PET-WHITTED MOCLDY    75  66  73 SE13      30.25R                  
SARASOTA       FAIR      73  65  75 E12       30.24R                  
STATION/POSITION
CEDAR KEY
VENICE
$$
FLZ062-065-066-069-070-075>078-200400-
SOUTHWEST FLORIDA AND KEYS
  
CITY           SKY/WX    TMP DP  RH WIND       PRES   REMARKS
PUNTA GORDA    CLOUDY    74  65  73 E9        30.27R                  
FT MYERS       CLOUDY    76  68  76 SE13      30.25R                  
SOUTHWEST INTL CLOUDY    74  68  81 E9        30.25R                  
NAPLES         MOCLDY    75  68  78 E9        30.24R                  
MARATHON       FAIR      76  68  76 E12G23    30.20S                  
KEY WEST NAS   FAIR      76  75  97 E22       30.20R                  
KEY WEST INTL  FAIR      77  72  84 E21G26    30.20R                  
STATION/POSITION
VENICE
SAND KEY
LONG KEY
MOLASSES REEF
$$
FLZ067-068-071>074-200400-
SOUTHEAST FLORIDA 
  
CITY           SKY/WX    TMP DP  RH WIND       PRES   REMARKS
W PALM BEACH   FAIR      76  69  79 E17       30.28S                  
POMPANO BEACH  CLOUDY    77  71  82 E16G23    30.27R                  
FT LAUDER-EXEC FAIR      76  70  82 E15G25    30.26R                  
FT LAUDERDALE  MOCLDY    77  72  84 E18G26    30.25S                  
PEMBROKE PINES FAIR      77  69  76 E14G25    30.27S                  
OPA LOCKA      FAIR      76  69  79 E16G23    30.26S                  
MIAMI          CLOUDY    73  70  90 E16G25    30.26R                  
WEST KENDALL   MOCLDY    76  68  76 E16       30.24S                  
HOMESTEAD      CLOUDY    75  72  88 E17G23    30.24R                  
STATION/POSITION
LAKE WORTH
FOWEY ROCKS
SETTLEMENT POINT
$$
  

036 
NZUS99 KTBW 200316
RWRTBW
Regional Weather Roundup National Weather Service Ruskin Florida
1000 PM EST MON FEB 19 2018
  
CITY           SKY/WX    TMP DP  RH WIND       PRES   REMARKS
Cross City     FAIR      72  64  74 E8        30.33R                  
Williston      CLEAR     73  66  78 E7        30.30R                  
Gainesville    FAIR      68  63  84 E7        30.34R                  
Ocala          FAIR      71  65  81 VRB3      30.31R                  
Crystal River  FAIR      72  64  78 E5        30.29R                  
Inverness      FAIR      72  68  88 E5        30.30R                  
Leesburg       FAIR      73  68  84 E9        30.31R                  
Orlando        FAIR      72  68  87 E8        30.31R                  
Brooksville    FAIR      73  65  75 E6        30.29R                  
Zephyrhills    FAIR      71  66  84 E6        30.30R                  
Lakeland       CLEAR     72  64  78 E8        30.29S                  
Winter Haven   FAIR      72  68  87 E10       30.30R                  
Bartow         FAIR      70  68  94 E8        30.30R                  
CITY           SKY/WX    TMP DP  RH WIND       PRES   REMARKS
Tampa Intl     FAIR      77  65  66 SE9G16    30.27R                  
Tampa Exec     FAIR      72  64  78 E6        30.28R                  
MacDill AFB    FAIR      73  65  75 SE8       30.26R                  
Peter O Knight CLOUDY    73  66  78 E9        30.27S                  
Plant City     FAIR      73  64  73 E6        30.30S                  
Clearwater     FAIR      74  65  73 E7        30.26R                  
St Petersburg  MOCLDY    75  66  73 SE13      30.25R                  
Sarasota       FAIR      73  65  75 E12       30.24R                  
Sebring        FAIR      70  66  86 E5        30.29R                  
Punta Gorda    CLOUDY    74  65  73 E9        30.27R                  
Ft Myers       CLOUDY    76  68  76 SE13      30.25R                  
Ft Myers-RSW   CLOUDY    74  68  81 E9        30.25R                  
Naples         MOCLDY    75  68  78 E9        30.24R                  
STATION/POSITION SKY/WX   TEMP WIND        PRES    VSBY
                          AIR  DIR/SP/G
                          (F)  (DEG/KT/KT) (MB)    (MI)
Keaton Beach               67   60/  5/  7 1025.6R
Sand Key                   77              1022.8R
039 Panama City            74  130/ 14/ 17 1022.9R
Venice                     73   90/  8/ 10 1024.4R
Cedar Key                  74  110/ 16/ 18 1025.6R
CITY           SKY/WX    TMP DP  RH WIND       PRES   REMARKS
Tallahassee    FAIR      63  57  81 CALM      30.27R                  
Daytona Beach  FAIR      72  69  90 E6        30.32R                  
Melbourne      FAIR      76  69  79 E13       30.30R                  
W Palm Beach   FAIR      76  69  79 E17       30.28S                  
Miami          CLOUDY    73  70  90 E16G25    30.26R                  
Key West       FAIR      77  72  84 E21G26    30.20R                  
San Juan, PR   PTCLDY    77  70  78 E12       30.18S                  
Cancun, MX     PTCLDY    79  72  78 E8        30.08R